Hourly Weather Hoszow

Today, 11 May, Tuesday

Time Temperature Precipitation Wind Pressure Humidity
00:00 +10°C° 0 mm 2 mps 717 mmHg 86%
01:00 +10°C° 0 mm 2 mps 717 mmHg 86%
02:00 +9°C° 0 mm 2 mps 717 mmHg 85%
03:00 +9°C° 0 mm 2 mps 717 mmHg 86%
04:00 +9°C° 0 mm 2 mps 717 mmHg 86%
05:00 +9°C° 0 mm 2 mps 717 mmHg 86%
06:00 +12°C° 0 mm 2 mps 717 mmHg 79%
07:00 +15°C° 0 mm 2 mps 717 mmHg 71%
08:00 +17°C° 0 mm 2 mps 717 mmHg 64%
09:00 +19°C° 0 mm 2 mps 717 mmHg 58%
10:00 +21°C° 0 mm 2 mps 717 mmHg 52%
11:00 +23°C° 0 mm 2 mps 717 mmHg 45%
12:00 +24°C° 0 mm 3 mps 716 mmHg 44%
13:00 +25°C° 0 mm 3 mps 716 mmHg 43%
14:00 +25°C° 0 mm 3 mps 716 mmHg 42%
15:00 +24°C° 0 mm 3 mps 716 mmHg 45%
16:00 +24°C° 0 mm 3 mps 715 mmHg 49%
17:00 +22°C° 0 mm 3 mps 715 mmHg 53%
18:00 +19°C° 0 mm 2 mps 715 mmHg 64%
19:00 +17°C° 0 mm 2 mps 714 mmHg 74%
20:00 +14°C° 0 mm 1 mps 714 mmHg 85%
21:00 +14°C° 0 mm 2 mps 714 mmHg 87%
22:00 +13°C° 0 mm 2 mps 714 mmHg 89%
23:00 +12°C° 0 mm 2 mps 714 mmHg 91%

Tomorrow, 12 May, Wednesday

Time Temperature Precipitation Wind Pressure Humidity
00:00 +10°C° 0 mm 2 mps 713 mmHg 91%
01:00 +10°C° 0 mm 2 mps 713 mmHg 92%
02:00 +10°C° 0 mm 2 mps 713 mmHg 92%
03:00 +9°C° 0 mm 2 mps 712 mmHg 92%
04:00 +10°C° 0 mm 1 mps 712 mmHg 92%
05:00 +10°C° 0 mm 1 mps 712 mmHg 91%
06:00 +12°C° 0 mm 1 mps 712 mmHg 84%
07:00 +14°C° 0 mm 1 mps 712 mmHg 76%
08:00 +18°C° 0 mm 1 mps 712 mmHg 68%
09:00 +18°C° 0 mm 2 mps 712 mmHg 63%
10:00 +19°C° 0 mm 3 mps 712 mmHg 58%
11:00 +20°C° 0 mm 4 mps 712 mmHg 53%
12:00 +20°C° 0.1 mm 5 mps 711 mmHg 54%
13:00 +20°C° 0.1 mm 5 mps 711 mmHg 55%
14:00 +20°C° 0.1 mm 5 mps 711 mmHg 56%
15:00 +19°C° 0 mm 5 mps 711 mmHg 63%
16:00 +16°C° 0 mm 5 mps 710 mmHg 69%
17:00 +15°C° 0 mm 5 mps 710 mmHg 76%
18:00 +13°C° 0 mm 5 mps 710 mmHg 80%
19:00 +12°C° 0 mm 4 mps 710 mmHg 83%
20:00 +10°C° 0 mm 4 mps 709 mmHg 87%
21:00 +9°C° 0 mm 3 mps 709 mmHg 89%
22:00 +9°C° 0 mm 3 mps 709 mmHg 91%
23:00 +8°C° 0 mm 3 mps 708 mmHg 94%

Day after tomorrow, 13 May, Thursday

Time Temperature Precipitation Wind Pressure Humidity
00:00 +8°C° 0 mm 2 mps 708 mmHg 94%
01:00 +8°C° 0 mm 2 mps 708 mmHg 94%
02:00 +8°C° 0 mm 2 mps 707 mmHg 93%
03:00 +8°C° 0 mm 2 mps 707 mmHg 94%
04:00 +8°C° 0 mm 2 mps 706 mmHg 95%
05:00 +9°C° 0 mm 1 mps 706 mmHg 95%
06:00 +9°C° 0 mm 2 mps 706 mmHg 92%
07:00 +12°C° 0 mm 2 mps 706 mmHg 90%
08:00 +13°C° 0 mm 2 mps 706 mmHg 87%
09:00 +14°C° 0 mm 2 mps 706 mmHg 83%
10:00 +13°C° 0 mm 3 mps 706 mmHg 79%
11:00 +14°C° 0 mm 3 mps 706 mmHg 75%
12:00 +14°C° 0.1 mm 4 mps 706 mmHg 75%
13:00 +14°C° 0.1 mm 4 mps 706 mmHg 75%
14:00 +14°C° 0.1 mm 4 mps 706 mmHg 75%
15:00 +14°C° 0.1 mm 4 mps 706 mmHg 76%
16:00 +14°C° 0.1 mm 4 mps 706 mmHg 76%
17:00 +14°C° 0.1 mm 4 mps 706 mmHg 77%
18:00 +13°C° 0.1 mm 3 mps 707 mmHg 80%
19:00 +12°C° 0.1 mm 3 mps 707 mmHg 83%
20:00 +12°C° 0.1 mm 2 mps 707 mmHg 86%
21:00 +12°C° 0 mm 2 mps 707 mmHg 89%
22:00 +10°C° 0 mm 2 mps 707 mmHg 91%
23:00 +9°C° 0 mm 2 mps 707 mmHg 94%

14 May, Friday

Time Temperature Precipitation Wind Pressure Humidity
00:00 +9°C° 0 mm 2 mps 707 mmHg 94%
01:00 +9°C° 0 mm 2 mps 707 mmHg 94%
02:00 +8°C° 0 mm 2 mps 707 mmHg 94%
03:00 +8°C° 0 mm 2 mps 707 mmHg 93%
04:00 +8°C° 0 mm 3 mps 707 mmHg 91%
05:00 +8°C° 0 mm 3 mps 707 mmHg 90%
06:00 +8°C° 0 mm 4 mps 708 mmHg 83%
07:00 +10°C° 0 mm 4 mps 708 mmHg 77%
08:00 +10°C° 0 mm 5 mps 709 mmHg 70%
09:00 +12°C° 0 mm 5 mps 709 mmHg 69%
10:00 +11°C° 0 mm 6 mps 709 mmHg 68%
11:00 +11°C° 0 mm 6 mps 710 mmHg 67%
12:00 +11°C° 0.1 mm 6 mps 710 mmHg 67%
13:00 +13°C° 0.1 mm 6 mps 710 mmHg 67%
14:00 +13°C° 0.1 mm 6 mps 710 mmHg 68%
15:00 +12°C° 0.1 mm 5 mps 711 mmHg 70%
16:00 +12°C° 0.1 mm 4 mps 711 mmHg 73%
17:00 +11°C° 0.1 mm 4 mps 711 mmHg 76%
18:00 +11°C° 0.1 mm 3 mps 711 mmHg 81%
19:00 +10°C° 0.1 mm 2 mps 711 mmHg 86%
20:00 +10°C° 0.1 mm 1 mps 712 mmHg 91%
21:00 +9°C° 0 mm 1 mps 712 mmHg 92%
22:00 +9°C° 0 mm 1 mps 712 mmHg 92%
23:00 +9°C° 0 mm 1 mps 712 mmHg 93%

15 May, Saturday

Time Temperature Precipitation Wind Pressure Humidity
00:00 +8°C° 0 mm 1 mps 712 mmHg 93%
01:00 +8°C° 0 mm 1 mps 712 mmHg 94%
02:00 +7°C° 0 mm 1 mps 712 mmHg 95%
03:00 +7°C° 0 mm 1 mps 712 mmHg 96%
04:00 +7°C° 0 mm 1 mps 712 mmHg 96%
05:00 +7°C° 0 mm 1 mps 713 mmHg 97%
06:00 +8°C° 0.1 mm 2 mps 713 mmHg 93%
07:00 +10°C° 0.1 mm 2 mps 713 mmHg 89%
08:00 +12°C° 0.1 mm 2 mps 713 mmHg 85%
09:00 +12°C° 0.3 mm 2 mps 714 mmHg 86%
10:00 +13°C° 0.3 mm 2 mps 714 mmHg 86%
11:00 +13°C° 0.3 mm 2 mps 714 mmHg 86%
12:00 +14°C° 0.2 mm 2 mps 714 mmHg 80%
13:00 +15°C° 0.2 mm 2 mps 714 mmHg 74%
14:00 +16°C° 0.2 mm 2 mps 714 mmHg 68%
15:00 +15°C° 0.3 mm 2 mps 714 mmHg 70%
16:00 +15°C° 0.3 mm 2 mps 714 mmHg 73%
17:00 +15°C° 0.3 mm 2 mps 714 mmHg 76%
18:00 +14°C° 0.1 mm 2 mps 714 mmHg 81%
19:00 +12°C° 0.1 mm 1 mps 714 mmHg 86%
20:00 +11°C° 0.1 mm 1 mps 714 mmHg 91%
21:00 +10°C° 0 mm 1 mps 714 mmHg 92%
22:00 +10°C° 0 mm 1 mps 714 mmHg 93%
23:00 +9°C° 0 mm 1 mps 714 mmHg 93%

16 May, Sunday

Time Temperature Precipitation Wind Pressure Humidity
00:00 +9°C° 0 mm 1 mps 714 mmHg 94%
01:00 +8°C° 0 mm 1 mps 714 mmHg 94%
02:00 +8°C° 0 mm 1 mps 714 mmHg 95%
03:00 +8°C° 0 mm 1 mps 714 mmHg 95%
04:00 +8°C° 0 mm 1 mps 714 mmHg 96%
05:00 +8°C° 0 mm 1 mps 715 mmHg 96%
06:00 +9°C° 0 mm 1 mps 715 mmHg 93%
07:00 +10°C° 0 mm 1 mps 715 mmHg 91%
08:00 +10°C° 0 mm 2 mps 715 mmHg 88%
09:00 +12°C° 0 mm 2 mps 715 mmHg 82%
10:00 +13°C° 0 mm 2 mps 715 mmHg 77%
11:00 +13°C° 0 mm 3 mps 716 mmHg 71%
12:00 +13°C° 0 mm 3 mps 716 mmHg 71%
13:00 +13°C° 0 mm 3 mps 715 mmHg 71%
14:00 +13°C° 0 mm 3 mps 715 mmHg 71%
15:00 +13°C° 0 mm 3 mps 715 mmHg 73%
16:00 +14°C° 0 mm 2 mps 715 mmHg 76%
17:00 +13°C° 0 mm 2 mps 715 mmHg 79%
18:00 +12°C° 0 mm 2 mps 715 mmHg 83%
19:00 +12°C° 0 mm 1 mps 715 mmHg 87%
20:00 +11°C° 0 mm 1 mps 715 mmHg 92%
21:00 +10°C° 0 mm 1 mps 715 mmHg 93%
22:00 +9°C° 0 mm 1 mps 715 mmHg 95%
23:00 +8°C° 0 mm 1 mps 715 mmHg 96%
Show more

We Need Your Consent

Meteoprog and our Service Providers may store and access personal data such as cookies, device identifiers or other similar technologies on your device and process such data to personalise content and ads, as well as provide social media features and to analyse the traffic.

  • Store and/or access information on your device

    Cookies, device identifiers or other information can be stored or accessed on your device for the purposes indicated above.

  • Personalised ads and content, ad and content measurement, audience insights, and products development

    Ads and content can be personalised based on a profile. More data can be added to better personalise ads and content. Ad and content performance can be measured. Insights about the audience who saw the ads and content can be derived. Such data can be used to develop or improve user’s experience, systems and software.

By clicking ‘I Agree’ you will allow the use of indicated cookies, device identifiers, web beacons or other similar technologies. Your settings can be changed in the browser on your device.

For certain purposes, legitimate interests may be relied on, rather than consent. You can read more about this in our Privacy and Cookie Policy.